Location: Hochstatterhof
(48.7256°N, 10.3487°E)
Time: 02:17:55
(UTC+00:00)

Cosmos 2322 - Pass Details

Date: 26 September 2023
Orbit: 842 x 852 km, 71.0° (Epoch: 04 December)

Event Time Altitude Azimuth Distance (km) Brightness Sun altitude
Rises 04:20:36 0° 329° (NNW) 3,428 6.6 -9.0°
Reaches altitude 10° 04:23:05 10° 327° (NNW) 2,487 5.9 -8.6°
Maximum altitude 04:28:43 63° 248° (WSW) 948 3.7 -7.7°
Drops below altitude 10° 04:34:18 10° 168° (SSE) 2,463 6.2 -6.8°
Sets 04:36:45 0° 165° (SSE) 3,393 7.0 -6.4°
